Погода в Бабушкине

Поиск расширенной информации на нашем сайте:

Полезная информация:

Новости сайта



02.01.2020
Опубликован Долгосрочный прогноз погоды по городам России и ближнего зарубежья на январь 2020 года.
Карты: Прогноз на январь и февраль 2020 года, Сравнение прогнозируемой аномалии приземной температуры воздуха на январь 2020 года по разным моделям.




Погода в Бабушкине - сегодня

Время (UTC), дата Ветер
(°,м/с) 
Видим.   Явления Облачность Т
(°С)
Тd
(°С)
f(%) Тe
(°С)
Pmin
(гПа)
dP
(гПа)
Po
(мм)
O2
(г/м3)
Тmin Tmax R s Состояние
почвы
18 29.11.20 270 (З) 6-11{12}  10 км  слаб. ливневой снег  10/8 600 м кучево-дожд., средняя 
[Cb cap|Ac As]
-5.6 -6.7 92 -10  1039.3  -0.2  735  303           
21 29.11.20 260 (З) 7-11{12}  50000 м  слаб. ливневой снег  10/8 600 м кучево-дожд., средняя 
[Cb cap|Ac As]
-5.9 -6.8 93 -11  1039.5  0.1  735  303           
00 30.11.20 270 (З) 6-10{12}  2000 м  слаб. ливневой снег  10/10 600 м кучево-дожд. 
[Cb cap]
-6.8 -7.6 94 -12  1040.6  0.9  736  305  -6.8    равномерный
сухой снег
100% 
03 30.11.20 270 (З) 8-14{15}  0500 м  ливневой снег  10/10 600 м кучево-дожд. 
[Cb cap]
-7.3 -8 95 -13  1041.7  0.9  736  306  -7.6         
06 30.11.20 260 (З) 9-13{14}  0500 м  ливневой снег  10/10 600 м кучево-дожд. 
[Cb cap]
-6.8 -7.6 94 -13  1041.2  -0.4  736  305           
09 30.11.20 270 (З) 8-12{14}  2000 м  снег{ливн. осадки}  10/10 300 м 
[Frnb|Ns]
-5.6 -7.3 88 -11  1040.8  -0.1  736  303           
12 30.11.20 280 (З) 8-13{14}  10 км  позёмок{ливн. осадки, снег}  10/8 600 м кучево-дожд., средняя 
[Cb cap|Ac As]
-4.2 -9.1 69 -9  1040.8  0.3  736  302    -4.1     
15 30.11.20 300 (СЗ) 6-10{15}  10 км  позёмок{ливн. осадки}  10/8 600 м кучево-дожд., средняя 
[Cb cap|Ac As]
-4.4 -9.2 69 -9  1040.9  0.1  736  302           
18 30.11.20 290 (З) 8-11{14}  10 км  позёмок{ливн. осадки}  10/8 600 м кучево-дожд., средняя 
[Cb cap|Ac As]
-4.3 -9.2 69 -9  1040.7  0.1  736  302           
21 30.11.20 270 (З) 6-10{12}  10 км  позёмок  10/8 600 м кучево-дожд., средняя 
[Cb cap|Ac As]
-4.2 -8.4 72 -8  1040.1  -0.6  736  302           
00 01.12.20 280 (З) 5{12}  10 км  позёмок  10/8 600 м кучево-дожд., средняя 
[Cb cap|Ac As]
-4.3 -8.1 75 -8  1039.9  -0.2  735  302  -5.1    0.0  равномерный
сухой снег
100% 
03 01.12.20 240 (ЮЗ) 4{10}  1000 м  ливневой снег  10/10 600 м кучево-дожд. 
[Cb cap]
-4.5 -4.9 97 -8  1039  -0.8  735  302           
06 01.12.20 260 (З) 7-11{12}  20000 м  позёмок{ливн. осадки}  10/8 600 м кучево-дожд., средняя 
[Cb cap|Ac As]
-2.4 -6.8 72 -7  1037.4  -1.1  734  299           
09 01.12.20 290 (З) 5{14}  10 км  слаб. ливневой снег  10/8 600 м кучево-дожд., средняя 
[Cb cap|Ac As]
-3.4 -8 70 -7  1038.4  0.8  735  300           
12 01.12.20 280 (З) 5{11}  10 км  позёмок{ливн. осадки}  10/8 600 м кучево-дожд., средняя 
[Cb cap|Ac As]
-4.5 -8.6 73 -8  1039.8  1.1  735  302    -2     
15 01.12.20 260 (З) 7-12{12}  4000 м  слаб. ливневой снег  10/8 600 м кучево-дожд., средняя 
[Cb cap|Ac As]
-5 -8.9 74 -10  1040.3  0.3  736  303           
21 01.12.20 270 (З) 8-12{15}  4000 м  слаб. ливневой снег  10/8 600 м кучево-дожд., средняя 
[Cb cap|Ac As]
-6.2 -9 81 -12  1041.3  0.4  736  304           
00 02.12.20 270 (З) 8-13{15}  4000 м  слаб. ливневой снег  10/8 600 м кучево-дожд., средняя 
[Cb cap|Ac As]
-6.9 -9.1 84 -13  1042.7  1.1  737  306  -7    0.4  равномерный
сухой снег
100% 
03 02.12.20 270 (З) 8-13{15}  2000 м  снег{ливн. осадки}  10/10 300 м 
[Frnb]
-6.8 -8.6 87 -13  1043.9  1.2  738  306           
06 02.12.20 270 (З) 7-11{16}  2000 м  снег{ливн. осадки}  10/10 300 м 
[Frnb]
-6.6 -8.7 85 -12  1044.2  0.3  738  306           
09 02.12.20 280 (З) 7-13{13}  2000 м  снег  10/10 300 м 
[Frnb]
-5.8 -8.3 82 -11  1043.8  -0.2  738  305           
12 02.12.20 270 (З) 8-12{14}  2000 м  снег  10/10 300 м 
[Frnb]
-5.7 -8.6 80 -11  1044.3  0.3  738  305    -5.3     
15 02.12.20 280 (З) 6-10{13}  4000 м  слаб. снег  10/10 300 м 
[Frnb|Ns]
-5.8 -8.7 80 -10  1044.6  0.2  739  305           
18 02.12.20 280 (З) 6-10{12}  10 км  позёмок{снег}  10/8 300 м средняя 
[Frnb|As op]
-5.7 -9.4 75 -10  1044.3  -0.3  738  305           
21 02.12.20 300 (СЗ) 3{10}  10 км    9/4 300 м средняя 
[Frnb|Ac As]
-5.8 -10.9 67 -8  1043.8  -0.5  738  305           
Время (UTC), дата Ветер
(°,м/с) 
Видим.   Явления Облачность Т
(°С)
Тd
(°С)
f(%) Тe
(°С)
Pmin
(гПа)
dP
(гПа)
Po
(мм)
O2
(г/м3)
Тmin Tmax R s Состояние
почвы

Для получения пояснительной информации подведите курсор к названию столбца.

ПОГОДА в Бабушкине - архив

Всё, что Вы хотите узнать о погоде в Бабушкине - удобно и подробно!

Выберите нужную дату (начиная с 1 января 2019* года) и нажмите кнопку "Найти".
Будут отображены архивные сводки погоды по пункту Бабушкин, начиная с указанной даты.


Отображать данные в формате CSV (для использования в таблицах Excel)


Внимание! Наш архив погоды предназначен исключительно для личного некоммерческого использования в познавательных целях. Если Вам необходимы официальные справки о состоянии погоды (для производственных, юридических, коммерческих и т.п. целей), обращайтесь в органы Росгидромета.

*Примечание: данная дата относится к архиву по метеостанциям СССР (Россия, СНГ, Балтия).
Архив по метеостанциям Зарубежной Европы и Азии (кроме Китая) хранится 10 дней, по другим регионам земного шара (Китай, Африка, Америка, Австралия, Океания) - 1 день.

Бабушкин - район местоположения метеостанции


Название, широта, долгота, высота метеостанции:
Бабушкин 51.7°ш. 105.9°д. 467 м над ур. моря [Российская Федерация]

Дополнительная информация

В oтличие oт бoльшинства пoгoдных сайтoв мы публикуем пoдрoбную метеoинфoрмацию в детальнoм прoфессиoнальнoм фoрмате.

Характеристики температуры и влажнoсти вoздуха измеряются на высoте 2 м в тени вдали oт зданий и деревьев.
Скoрoсть ветра измеряется на высoте 10 м (на урoвне рoста челoвека скoрoсть ветра ниже в 1.5-2 раза). Если метеoстанция нахoдится в гoрoде или в лесу, тo скoрoсть ветра занижена на 2-4 м/с пo сравнению с oткрытым местoм. Скoрoсть ветра над акватoриями крупных рек и oзёр, а также на вершинах хoлмoв на 2-5 м/с выше, чем в oбычных услoвиях.
Атмoсфернoе давление в разных тoчках местнoсти мoжет значительнo oтличаться oт давления на метеoстанции, в зависимoсти oт услoвий рельефа (при пoдъёме на 10 м давление пoнижается примернo на 1 мм рт.ст.).